EW9495 Weather Reports


Display with metric or nautical units.
time (UTC)temp
F
wind
direction
speed
MPH
gust
MPH
rain 1hr
in
rain 24hr
in
rain mn
in
humidity
%
barometer
mb
20260904213020 0 323 13.0 23.0 0.00 0.00 0.00 1000.5
20260904211519 0 327 13.0 23.0 0.00 0.00 0.00 1000.4
20260904210019 0 308 13.0 22.0 0.00 0.00 0.00 1000.1
20260904204511 0 15 11.0 21.0 0.00 0.00 0.00 999.9
20260904203006 0 61 13.0 22.0 0.00 0.00 0.00 1000.0
20260904201502 0 346 11.0 19.0 0.00 0.00 0.00 999.8
20260904200111 0 349 11.0 21.0 0.00 0.00 0.00 999.8
20260904194553 0 329 9.0 14.0 0.00 0.00 0.00 999.5
20260904193049 0 22 10.0 19.0 0.00 0.00 0.00 998.7
20260904191544 0 332 10.0 15.0 0.00 0.00 0.00 998.8
20260904190041 0 322 8.0 15.0 0.00 0.00 0.00 998.7
20260904184538 0 319 8.0 13.0 0.00 0.00 0.00 998.4
20260904183041 0 302 4.0 10.0 0.00 0.00 0.00 998.4
20260904181537 0 296 4.0 9.0 0.00 0.00 0.00 998.3
20260904180043 0 335 2.0 5.0 0.00 0.00 0.00 998.4
20260904174536 0 246 1.0 5.0 0.00 0.00 0.00 998.2
20260904173051 0 91 0.0 2.0 0.00 0.00 0.00 997.9
20260904171538 0 338 3.0 7.0 0.00 0.00 0.00 997.7
20260904170039 0 281 2.0 6.0 0.00 0.00 0.00 997.9
20260904164530 0 260 1.0 5.0 0.00 0.00 0.00 997.9
20260904163026 0 240 1.0 9.0 0.00 0.00 0.00 997.6
20260904161521 0 248 4.0 9.0 0.00 0.00 0.00 997.7
20260904160019 0 237 8.0 14.0 0.00 0.00 0.00 997.8
20260904154513 0 165 9.0 13.0 0.00 0.00 0.00 997.5
20260904153012 0 131 9.0 16.0 0.00 0.00 0.00 996.8
20260904151504 0 106 9.0 21.0 0.00 0.00 0.00 996.0
20260904150059 0 113 9.0 19.0 0.00 0.00 0.00 996.1
20260904144555 0 117 6.0 14.0 0.00 0.00 0.00 996.2
20260904143051 0 109 7.0 16.0 0.00 0.00 0.00 996.2
20260904141553 0 107 7.0 12.0 0.00 0.00 0.00 996.5
20260904140042 0 108 7.0 11.0 0.00 0.00 0.00 996.5
20260904134559 0 98 7.0 14.0 0.00 0.00 0.00 996.3
20260904133036 0 82 8.0 12.0 0.00 0.00 0.00 996.4
20260904131528 0 80 8.0 13.0 0.00 0.00 0.00 996.4
20260904130024 0 90 8.0 13.0 0.00 0.00 0.00 996.2
20260904124520 0 71 8.0 12.0 0.00 0.00 0.00 995.8
20260904123016 0 83 8.0 13.0 0.00 0.00 0.00 995.8
20260904121511 0 93 8.0 13.0 0.00 0.00 0.00 995.8
20260904120007 0 108 8.0 15.0 0.00 0.00 0.00 995.9
20260904114503 0 70 10.0 16.0 0.00 0.00 0.00 996.0
20260904113058 0 80 12.0 20.0 0.00 0.00 0.00 995.8
20260904111553 0 62 13.0 19.0 0.00 0.00 0.00 996.0
20260904110050 0 55 13.0 21.0 0.00 0.00 0.00 996.2
20260904104546 0 82 15.0 24.0 0.00 0.00 0.00 996.0
20260904103041 0 98 14.0 22.0 0.00 0.00 0.00 996.2
20260904101537 0 72 13.0 24.0 0.00 0.00 0.00 996.6
20260904100032 0 78 13.0 24.0 0.00 0.00 0.00 996.6
20260904094542 0 89 17.0 24.0 0.00 0.00 0.00 996.7
20260904093024 0 59 14.0 23.0 0.00 0.00 0.00 996.7
20260904091519 0 67 16.0 23.0 0.00 0.00 0.00 996.8
20260904090030 0 77 12.0 21.0 0.00 0.00 0.00 996.9
20260904084512 0 97 14.0 21.0 0.00 0.00 0.00 997.1
20260904083006 0 88 16.0 21.0 0.00 0.00 0.00 997.1
20260904081504 0 72 14.0 22.0 0.00 0.00 0.00 997.2
20260904080057 0 70 9.0 12.0 0.00 0.00 0.00 997.4
20260904074554 0 73 9.0 11.0 0.00 0.00 0.00 997.7
20260904073054 0 74 4.0 7.0 0.00 0.00 0.00 998.0
20260904071600 0 87 3.0 6.0 0.00 0.00 0.00 998.0
20260904070107 0 63 3.0 5.0 0.00 0.00 0.00 998.1
20260904064537 0 63 2.0 5.0 0.00 0.00 0.00 998.0
20260904063034 0 46 4.0 7.0 0.00 0.00 0.00 998.1
20260904061530 0 37 4.0 7.0 0.00 0.00 0.00 998.5
20260904060020 0 34 6.0 7.0 0.00 0.00 0.00 998.7
20260904054518 0 59 2.0 4.0 0.00 0.00 0.00 998.7
20260904053033 0 138 4.0 7.0 0.00 0.00 0.00 998.9
20260904051520 0 94 4.0 7.0 0.00 0.00 0.00 998.9
20260904050002 0 111 3.0 10.0 0.00 0.00 0.00 998.9
20260904044558 0 17 0.0 4.0 0.00 0.00 0.00 998.6
20260904043100 0 349 3.0 7.0 0.00 0.00 0.00 998.4
20260904041549 0 321 3.0 7.0 0.00 0.00 0.00 998.5
20260904040100 0 15 3.0 8.0 0.00 0.00 0.00 998.6
20260904034540 0 19 4.0 7.0 0.00 0.00 0.00 998.6
20260904033040 0 340 3.0 7.0 0.00 0.00 0.00 998.8
20260904031537 0 331 5.0 9.0 0.00 0.00 0.00 998.6
20260904030027 0 330 4.0 8.0 0.00 0.00 0.00 998.7
20260904024523 0 338 4.0 7.0 0.00 0.00 0.00 998.5
20260904023022 0 334 4.0 6.0 0.00 0.00 0.00 998.4
20260904021524 0 326 5.0 8.0 0.00 0.00 0.00 998.2
20260904020019 0 327 5.0 8.0 0.00 0.00 0.00 998.0
20260904014517 0 315 3.0 8.0 0.00 0.00 0.00 998.1
20260904013015 0 304 6.0 11.0 0.00 0.00 0.00 998.1
20260904011511 0 319 7.0 18.0 0.00 0.00 0.00 998.1
20260904010006 0 306 7.0 18.0 0.00 0.01 0.00 998.1
20260904004501 0 309 8.0 14.0 0.00 0.01 0.00 998.0
20260904003057 0 247 7.0 16.0 0.00 0.01 0.00 998.0
20260904001554 0 319 7.0 16.0 0.00 0.01 0.00 997.9
20260904000103 0 298 11.0 20.0 0.00 0.01 0.00 997.9
20260903234545 0 290 9.0 16.0 0.00 0.02 0.00 997.7
20260903233040 0 281 10.0 18.0 0.00 0.02 0.00 997.7
20260903231540 0 310 11.0 22.0 0.00 0.02 0.00 997.6
20260903230044 0 309 9.0 22.0 0.00 0.02 0.00 997.5
20260903224533 0 261 12.0 21.0 0.00 0.02 0.00 997.3
20260903223026 0 328 11.0 25.0 0.00 0.02 0.00 997.0
20260903221518 0 259 9.0 21.0 0.00 0.02 0.00 997.0
20260903220024 0 276 8.0 19.0 0.00 0.02 0.00 996.8
20260903214526 0 295 9.0 22.0 0.00 0.02 0.00 996.8